STARLINK-34330, 64227

Orbit data source: Space-Track

STARLINK-34330, 64227 is a payload satellite owned by SpaceX/Seattle (US) in LEO that was launched on Sat, 31 May 2025 UTC via an FALCON 9 launch vehicle from the Air Force Western Test Range (AFWTR). Payload-class satellites include a variety of spacecraft equipped with specific instruments for various scientific and technological missions. These include communications satellites like Starlink; space stations such as the ISS; scientific satellites like the Hubble; Earth observation satellites from companies like Planet Labs, Umbra, and HawkEye 360; GPS; miniature CubeSats for education and research; and military/defense satellites.

Loading next visibility...
Identifier
64227, 2025-117AA
Orbit
LEO
Last TLE update
1 day ago
Origin
Manufacturer
SpaceX/Seattle
Mission
Operational Commercial Communications
Bus & Motor
STARLINK V2MO, Unknown motor
Mass
575 kg wet, ~530 kg dry
Launch date (UTC)
2025-05-31 (2 months ago)
Launch vehicle
FALCON 9
Launch site
Air Force Western Test Range (AFWTR)
Object type
Payload
Rocket body
Debris
Shape & HBR
Box + 1 Pan, 14.5 m
Radar Cross Section
41.120 m², Large (>1 m²)

Expand to show TLE details & history

TLE from 1 day ago
0 STARLINK-34330
1 64227U 25117AA  25210.68217417  .00038709  00000-0  97280-3 0  9999
2 64227  53.1606 356.7708 0001200  74.5712 285.5425 15.39620013 10360
Epoch: 2025-07-29T16:22Z
TLE epoch observation values (Epoch: 2025-07-29T16:22:19.848Z)
Latitude
-0.00004°
Longitude
163.61582°
Altitude
447.916 km
Speed
7.645 km/s
True Right ascension
23h 47m 04s
True Declination
0° 00' 00"
Sunlit
Object was in full shadow at epoch
Visualization orbit readout
Latitude
28.22884°
Longitude
-44.97712°
Altitude
448.082 km
Speed
7.647 km/s
Apparent Right ascension
13h 30m 37s
Apparent Declination
-13° 42' 27"
Sunlit
Object is in daylight
Visualization observer readout
Local Sidereal Time
07:29:15
Azimuth
100.384° ESE
Elevation
-9.004°
Doppler factor
1
Orbital elements
Apogee altitude
448.309 km
Perigee altitude
446.67 km
Semi-major axis
6,825.626 km
Eccentricity
0.00012
Inclination
53.1606°
RAAN
356.7708°
Arg. of periapsis
74.5712°
True anomaly
285.52925°
Mean anomaly
285.5425°
Eccentric anomaly
285.53588°
Mean motion
3.84884 °/min
Orbital period
93.53 mins
BSTAR
0.0009728
Loading maneuver chart data...
Loading SW <> Apogee altitude chart data...
Loading historical data...
Loading historical data...
Loading historical data...
Loading historical data...
Loading historical data...
Loading historical data...
Loading historical data...
|